Le nostre stazioni meteo in Italia

Pubblicità
Il mio iltempo24.it
Cluanie Inn No 3, Gran Bretagna (99117): Temperatura & dewpoint: 17.05.2017 15:00:00 - 23.05.2017 15:00:00 (BST)Cluanie Inn No 3, Gran Bretagna (99117): Temperatura 5cm: 17.05.2017 15:00:00 - 23.05.2017 15:00:00 (BST)Cluanie Inn No 3, Gran Bretagna (99117): visibility: 17.05.2017 15:00:00 - 23.05.2017 15:00:00 (BST)Cluanie Inn No 3, Gran Bretagna (99117): precipitazioni: 17.05.2017 15:00:00 - 23.05.2017 15:00:00 (BST)
Data & Tempo tt [°C] td [°C] tt 5cm [°C] vv [km] rr [mm]
23.05.2017 15:00:00 12,0 6,3 - - 0,0
23.05.2017 14:00:00 12,4 5,7 - - 0,0
23.05.2017 13:00:00 13,2 6,5 - - 0,0
23.05.2017 12:00:00 12,2 6,7 - - 0,0
23.05.2017 11:00:00 11,1 5,6 - - 0,0
23.05.2017 10:00:00 9,9 6,9 9,9 - 0,2
23.05.2017 09:00:00 8,8 6,8 - - 0,6
23.05.2017 08:00:00 9,8 5,8 - - 0,0
23.05.2017 07:00:00 8,8 6,3 - - 0,0
23.05.2017 06:00:00 8,5 5,7 - - 0,4
23.05.2017 05:00:00 9,1 5,0 - - 0,0
23.05.2017 04:00:00 8,8 5,5 - - 0,0
23.05.2017 03:00:00 9,0 5,9 - - 0,0
23.05.2017 02:00:00 8,9 6,0 - - 0,8
23.05.2017 01:00:00 8,4 6,1 - - 0,2
23.05.2017 00:00:00 9,0 6,0 - - 0,2
22.05.2017 23:00:00 7,8 6,7 - - 0,2
22.05.2017 22:00:00 8,6 5,9 - - 0,6
22.05.2017 21:00:00 9,4 5,7 - - 0,0
22.05.2017 20:00:00 9,0 5,7 - - 0,4
22.05.2017 19:00:00 9,3 4,4 - - 1,8
22.05.2017 18:00:00 10,9 9,9 - - 1,8
22.05.2017 17:00:00 10,7 9,9 - - 3,0
22.05.2017 16:00:00 11,2 9,4 - - 1,4
22.05.2017 15:00:00 12,1 9,3 - - 0,6
22.05.2017 14:00:00 13,6 7,5 - - 0,0
22.05.2017 13:00:00 16,3 8,9 - - 0,0
22.05.2017 12:00:00 14,6 5,5 - - 0,0
22.05.2017 11:00:00 13,9 7,0 - - 0,0
22.05.2017 10:00:00 13,0 5,8 - 10 0,0
22.05.2017 09:00:00 12,5 6,0 - - 0,0
22.05.2017 08:00:00 12,0 7,1 - - 0,0
22.05.2017 07:00:00 11,3 6,2 - - 0,0
22.05.2017 06:00:00 10,8 6,3 - - 0,0
22.05.2017 05:00:00 12,0 5,2 - - 0,0
22.05.2017 04:00:00 11,4 6,0 - - 0,0
22.05.2017 03:00:00 11,5 5,4 - - 0,0
22.05.2017 02:00:00 11,3 5,4 - - 0,0
22.05.2017 01:00:00 10,8 6,4 - - 0,0
22.05.2017 00:00:00 10,7 6,1 - - 0,0
21.05.2017 23:00:00 10,1 7,1 - - 0,0
21.05.2017 22:00:00 9,9 6,6 - - 0,0
21.05.2017 21:00:00 11,6 6,4 - - 0,2
21.05.2017 20:00:00 10,7 8,9 - - 0,2
21.05.2017 19:00:00 11,5 8,4 - - 0,2
21.05.2017 18:00:00 12,1 8,2 - - 0,0
21.05.2017 17:00:00 12,1 8,3 - - 0,0
21.05.2017 16:00:00 11,5 8,6 - - 0,0
21.05.2017 15:00:00 10,2 8,5 - - 0,8
21.05.2017 14:00:00 10,1 7,5 - - 0,6
21.05.2017 13:00:00 10,3 7,4 - - 0,2
21.05.2017 12:00:00 10,1 6,7 - - 0,0
21.05.2017 11:00:00 9,9 5,3 - - 0,2
21.05.2017 10:00:00 8,7 6,0 9,2 - 0,0
21.05.2017 09:00:00 8,2 6,1 - - 0,4
21.05.2017 08:00:00 8,8 5,2 - - 0,0
21.05.2017 07:00:00 8,7 5,7 - - 0,0
21.05.2017 06:00:00 7,5 4,4 - - 0,0
21.05.2017 05:00:00 7,3 5,0 - - 0,0
21.05.2017 04:00:00 8,0 4,4 - - 0,0
21.05.2017 03:00:00 8,2 3,7 - - 0,0
21.05.2017 02:00:00 8,7 3,6 - - 0,0
21.05.2017 01:00:00 8,6 4,0 - - 0,0
21.05.2017 00:00:00 8,4 4,2 - - 0,0
20.05.2017 23:00:00 8,4 4,4 - - 0,0
20.05.2017 22:00:00 8,0 4,2 - - 0,0
20.05.2017 21:00:00 7,9 4,8 - - 0,8
20.05.2017 20:00:00 8,6 4,9 - - 0,2
20.05.2017 19:00:00 9,3 5,2 - - 0,0
20.05.2017 18:00:00 9,1 5,7 - - 0,0
20.05.2017 17:00:00 8,5 6,5 - - 0,6
20.05.2017 16:00:00 8,6 7,3 - - 0,6
20.05.2017 15:00:00 8,7 6,6 - - 0,4
20.05.2017 14:00:00 9,0 6,3 - - 0,2
20.05.2017 13:00:00 9,3 6,6 - - 0,2
20.05.2017 12:00:00 8,7 5,9 - - 0,4
20.05.2017 11:00:00 8,4 6,3 - - 1,0
20.05.2017 10:00:00 7,8 6,3 10,7 - 1,0
20.05.2017 09:00:00 7,9 6,2 - - 0,4
20.05.2017 08:00:00 7,8 6,3 - - 0,6
20.05.2017 07:00:00 7,4 6,6 - - 0,8
20.05.2017 06:00:00 7,3 6,4 - - 1,0
20.05.2017 05:00:00 7,4 6,1 - - 0,8
20.05.2017 04:00:00 7,8 6,6 - - 0,6
20.05.2017 03:00:00 7,9 6,4 - - 0,2
20.05.2017 02:00:00 8,1 6,3 - - 0,2
20.05.2017 01:00:00 9,1 5,9 - - 0,0
20.05.2017 00:00:00 9,2 6,1 - - 0,0
19.05.2017 23:00:00 10,0 5,8 - - 0,0
19.05.2017 22:00:00 10,3 5,2 - - 0,0
19.05.2017 21:00:00 11,2 5,1 - - 0,0
19.05.2017 20:00:00 12,1 5,4 - - 0,0
19.05.2017 19:00:00 13,1 4,5 - - 0,0
19.05.2017 18:00:00 13,8 3,0 - - 0,0
19.05.2017 17:00:00 13,7 3,3 - - 0,0
19.05.2017 16:00:00 14,2 3,6 - - 0,0
19.05.2017 15:00:00 13,9 3,3 - - -
19.05.2017 14:00:00 13,9 3,7 - - 0,0
19.05.2017 13:00:00 13,2 4,2 - - 0,0
19.05.2017 12:00:00 12,4 4,1 - - 0,0
19.05.2017 11:00:00 11,1 5,6 - - 0,0
19.05.2017 10:00:00 9,7 5,7 9,8 - 0,0
19.05.2017 09:00:00 8,3 5,5 - - 0,0
19.05.2017 08:00:00 7,2 5,2 - - 0,0
19.05.2017 07:00:00 5,8 4,0 - - 0,0
19.05.2017 06:00:00 5,3 3,8 - - 0,0
19.05.2017 05:00:00 5,6 4,1 - - 0,0
19.05.2017 04:00:00 5,4 3,8 - - 0,0
19.05.2017 03:00:00 5,5 4,0 - - 0,0
19.05.2017 02:00:00 6,2 4,1 - - 0,0
19.05.2017 01:00:00 5,6 4,5 - - 0,0
19.05.2017 00:00:00 4,7 3,8 - - 0,0
18.05.2017 23:00:00 5,7 4,3 - - 0,0
18.05.2017 22:00:00 6,7 4,7 - - 0,4
18.05.2017 21:00:00 8,7 5,0 - - 0,6
18.05.2017 20:00:00 10,2 4,9 - - 0,0
18.05.2017 19:00:00 11,5 5,1 - - 0,0
18.05.2017 18:00:00 12,0 6,3 - - 0,2
18.05.2017 17:00:00 11,3 4,7 - - 0,0
18.05.2017 16:00:00 12,2 7,6 - - 1,4
18.05.2017 15:00:00 11,4 3,4 - - 0,0
18.05.2017 14:00:00 11,6 4,9 - - 0,2
18.05.2017 13:00:00 10,2 5,7 - - 0,2
18.05.2017 12:00:00 10,3 5,6 - - 0,0
18.05.2017 11:00:00 10,6 4,7 - - 0,0
18.05.2017 10:00:00 9,7 5,0 9,7 - 0,0
18.05.2017 09:00:00 8,5 5,4 - - 0,0
18.05.2017 08:00:00 6,6 5,2 - - 0,0
18.05.2017 07:00:00 4,4 4,2 - - 0,0
18.05.2017 06:00:00 2,1 1,8 - - 0,0
18.05.2017 05:00:00 1,8 1,3 - - 0,0
18.05.2017 04:00:00 2,1 1,5 - - 0,0
18.05.2017 03:00:00 3,8 2,9 - - 0,0
18.05.2017 02:00:00 4,2 2,9 - - 0,0
18.05.2017 01:00:00 4,9 3,6 - - 0,0
18.05.2017 00:00:00 7,4 6,0 - - 0,0
17.05.2017 23:00:00 8,2 6,0 - - 0,0
17.05.2017 22:00:00 8,6 6,2 - - 0,0
17.05.2017 21:00:00 9,4 7,2 - - 0,0
17.05.2017 20:00:00 9,6 6,5 - - 0,2
17.05.2017 19:00:00 9,9 6,2 - - 1,4
17.05.2017 18:00:00 11,4 6,9 - - 0,0
17.05.2017 17:00:00 10,7 6,7 - - 0,4
17.05.2017 16:00:00 11,2 6,6 - - 0,8
17.05.2017 15:00:00 11,6 7,7 - - 0,4

tt = Temperatura
td = dewpoint
tt 5cm = Temperatura 5cm
vv = visibility
rr = precipitazioni

Stazioni seguenti

WeatherPro
AMSI
MeteoEarth